リニア彗星

236P/LINEAR (2025)

English version
Home page
Updated on September 3, 2024

---------------------------------------------------------------------

・ プロフィール

・ 写真集

・ 軌道要素

Epoch 2024 Oct. 17.0 TT = JDT 2460600.5
T 2025 Feb. 3.79634 TT                                  Rudenko
q   1.8281230            (2000.0)            P               Q
n   0.13710285     Peri.  119.41080     +0.96412872     -0.06871689
a   3.7248180      Node   245.56932     -0.00455397     +0.96148402
e   0.5092047      Incl.   16.35571     +0.26539605     +0.26613241
P   7.19
>From 878 observations 2003 Sept. 27-2024 July 27, mean residual 0".7.

・ 光度変化

        m1 = 14.5 + 5 logΔ + 10.0 log r

---------------------------------------------------------------------

軌道要素はM.P.E.C. 2024-P23に掲載されたものです。
光度グラフはComet for Windowsで作成したものです。

---------------------------------------------------------------------

Copyright(C) Seiichi Yoshida (comet@aerith.net). All rights reserved.